Tracking 31027 objects as of 19-Jul-2025
HD Live streaming from Space Station
objects crossing your sky now

STARLINK-5619

Track STARLINK-5619 now!
10-day predictions
STARLINK-5619 is classified as:


NORAD ID: 55755
Int'l Code: 2023-028Q
Perigee: 577.3 km
Apogee: 581.3 km
Inclination: 70.0 °
Period: 96.1 minutes
Semi major axis: 6950 km
RCS: Unknown
Launch date: March 3, 2023
Source: United States (US)
Launch site: AIR FORCE WESTERN TEST RANGE (AFWTR)
Your satellite tracking list
FREGAT DEB
Track 1 satellite(s)




NASA's NSSDC Master Catalog

Two Line Element Set (TLE):
1 55755U 23028Q   25199.66668981  .00058603  00000-0  48817-2 0  9990
2 55755  70.0010 114.3443 0002899 266.0531 313.6659 14.98302989  5638
Source of the keplerian elements: AFSPC